EXS89LJ LIPX-EGBB

Flight info

Callsign EXS89LJ
Flight time 1h 44m
Altitude 18000
Route OTZOM Y480 UPXUF L612 ADOSA/N0441F360 DCT TAGIP DCT ATPED DCT RESIA DCT ELMUR DCT RIPUS DCT DITON DCT HOC DCT LUL DCT RLP DCT ROTSI DCT KOTUN DCT NINAL DCT ABNUR DCT DIMAL DCT ALESO T420 HEMEL
Aircraft B738/M-SDE2E3FGHIRWXY/LB1

Departure

Time 2026-05-05 19:45
Airport Verona Villafranca Valerio Catullo Airport (LIPX)

Arrival

Time 2026-05-05 21:30
Airport Birmingham Airport (EGBB)
Time Latitude Longitude Altitude Speed Heading
2026-05-05 19:09 45.40329 10.90637 241 ft 0 kts 135°
2026-05-05 19:37 45.40334 10.90630 241 ft 4 kts 134°
2026-05-05 19:37 45.40353 10.90603 241 ft 4 kts 143°
2026-05-05 19:37 45.40372 10.90593 241 ft 2 kts 199°
2026-05-05 19:38 45.40391 10.90610 241 ft 4 kts 226°
2026-05-05 19:38 45.40395 10.90615 241 ft 0 kts 225°
2026-05-05 19:41 45.40394 10.90615 241 ft 1 kts 225°
2026-05-05 19:41 45.40387 10.90604 241 ft 4 kts 225°
2026-05-05 19:41 45.40345 10.90545 241 ft 12 kts 226°
2026-05-05 19:42 45.40260 10.90413 241 ft 14 kts 247°
2026-05-05 19:42 45.40309 10.90306 241 ft 13 kts 315°
2026-05-05 19:42 45.40336 10.90191 242 ft 10 kts 285°
2026-05-05 19:42 45.40342 10.90172 243 ft 1 kts 293°
2026-05-05 19:43 45.40342 10.90169 243 ft 0 kts 293°
2026-05-05 19:43 45.40347 10.90153 243 ft 4 kts 293°
2026-05-05 19:43 45.40367 10.90100 244 ft 7 kts 310°
2026-05-05 19:44 45.40389 10.90051 244 ft 4 kts 262°
2026-05-05 19:44 45.40357 10.89998 245 ft 22 kts 225°
2026-05-05 19:44 45.40077 10.89591 244 ft 93 kts 225°
2026-05-05 19:44 45.39475 10.88714 238 ft 153 kts 225°
2026-05-05 19:45 45.38646 10.87511 572 ft 176 kts 225°
2026-05-05 19:45 45.37809 10.86224 1362 ft 179 kts 228°
2026-05-05 19:45 45.37006 10.84747 1862 ft 202 kts 233°
2026-05-05 19:45 45.36192 10.82981 2188 ft 221 kts 238°
2026-05-05 19:46 45.35452 10.81031 2769 ft 226 kts 243°
2026-05-05 19:46 45.34816 10.78956 3319 ft 238 kts 246°
2026-05-05 19:46 45.34067 10.76738 3705 ft 256 kts 230°
2026-05-05 19:46 45.32617 10.75322 4465 ft 257 kts 197°
2026-05-05 19:47 45.30834 10.75207 5286 ft 262 kts 169°
2026-05-05 19:47 45.29195 10.76320 6001 ft 273 kts 142°
2026-05-05 19:47 45.28021 10.78521 6702 ft 284 kts 114°
2026-05-05 19:47 45.27708 10.81274 7398 ft 292 kts 86°
2026-05-05 19:48 45.28147 10.84101 8141 ft 296 kts 75°
2026-05-05 19:48 45.28750 10.86922 8842 ft 300 kts 74°
2026-05-05 19:48 45.29364 10.89780 9502 ft 306 kts 75°
2026-05-05 19:48 45.29969 10.92699 10190 ft 309 kts 75°
2026-05-05 19:49 45.30558 10.95659 10870 ft 312 kts 76°
2026-05-05 19:49 45.31138 10.98657 11527 ft 316 kts 76°
2026-05-05 19:49 45.31718 11.01707 12145 ft 322 kts 76°
2026-05-05 19:49 45.32419 11.04717 12640 ft 334 kts 62°
2026-05-05 19:50 45.33935 11.07336 12816 ft 354 kts 38°
2026-05-05 19:50 45.36114 11.09080 13105 ft 366 kts 15°
2026-05-05 19:50 45.38630 11.09597 13708 ft 366 kts 354°
2026-05-05 19:50 45.41102 11.08899 14372 ft 361 kts 334°
2026-05-05 19:51 45.43313 11.07227 15041 ft 360 kts 325°
2026-05-05 19:51 45.45461 11.05352 15657 ft 365 kts 323°
2026-05-05 19:51 45.47624 11.03408 16289 ft 369 kts 323°
2026-05-05 19:51 45.49805 11.01440 16942 ft 373 kts 323°
2026-05-05 19:52 45.52018 10.99455 17604 ft 378 kts 323°
2026-05-05 19:52 45.54259 10.97457 18199 ft 383 kts 323°
2026-05-05 19:52 45.56539 10.95433 18785 ft 387 kts 323°
2026-05-05 19:52 45.58838 10.93402 19396 ft 389 kts 323°
2026-05-05 19:53 45.61149 10.91363 19967 ft 393 kts 323°
2026-05-05 19:53 45.63487 10.89301 20502 ft 396 kts 323°
2026-05-05 19:53 45.65845 10.87220 21045 ft 400 kts 323°
2026-05-05 19:53 45.68223 10.85121 21586 ft 403 kts 322°
2026-05-05 19:54 45.70617 10.83004 22147 ft 406 kts 322°
2026-05-05 19:54 45.73027 10.80871 22688 ft 409 kts 322°
2026-05-05 19:54 45.75456 10.78718 23221 ft 412 kts 322°
2026-05-05 19:54 45.77900 10.76549 23709 ft 415 kts 322°
2026-05-05 19:55 45.80366 10.74360 24167 ft 418 kts 322°
2026-05-05 19:55 45.82812 10.72187 24651 ft 419 kts 322°
2026-05-05 19:55 45.85294 10.69979 25114 ft 419 kts 322°
2026-05-05 19:55 45.87789 10.67757 25531 ft 423 kts 321°
2026-05-05 19:56 45.90298 10.65518 25878 ft 427 kts 321°
2026-05-05 19:56 45.92824 10.63261 26316 ft 429 kts 321°
2026-05-05 19:56 45.95367 10.60990 26787 ft 430 kts 321°
2026-05-05 19:56 45.97913 10.58713 27265 ft 432 kts 321°
2026-05-05 19:57 46.00476 10.56418 27670 ft 435 kts 321°
2026-05-05 19:57 46.03051 10.54108 28064 ft 437 kts 321°
2026-05-05 19:57 46.05613 10.51808 28472 ft 440 kts 321°
2026-05-05 19:57 46.08221 10.49465 28871 ft 441 kts 321°
2026-05-05 19:58 46.10845 10.47105 29245 ft 443 kts 321°
2026-05-05 19:58 46.13457 10.44753 29571 ft 446 kts 321°
2026-05-05 19:58 46.16071 10.42324 29914 ft 445 kts 317°
2026-05-05 19:58 46.18515 10.39589 30241 ft 444 kts 314°
2026-05-05 19:59 46.20896 10.36720 30462 ft 447 kts 313°
2026-05-05 19:59 46.23275 10.33796 30707 ft 449 kts 313°
2026-05-05 19:59 46.25663 10.30876 31103 ft 448 kts 313°
2026-05-05 19:59 46.28039 10.28000 31610 ft 445 kts 313°
2026-05-05 20:00 46.30414 10.25149 32093 ft 442 kts 312°
2026-05-05 20:00 46.32747 10.22359 32443 ft 440 kts 312°
2026-05-05 20:00 46.35108 10.19536 32813 ft 439 kts 312°
2026-05-05 20:00 46.37461 10.16721 33178 ft 438 kts 311°
2026-05-05 20:01 46.39801 10.13917 33554 ft 437 kts 311°
2026-05-05 20:01 46.42144 10.11107 33964 ft 434 kts 311°
2026-05-05 20:01 46.44469 10.08314 34282 ft 434 kts 311°
2026-05-05 20:02 46.49031 10.02519 34478 ft 433 kts 304°
2026-05-05 20:02 46.51049 9.99280 34767 ft 430 kts 303°
2026-05-05 20:02 46.53008 9.96012 35040 ft 429 kts 302°
2026-05-05 20:02 46.54965 9.92711 35197 ft 431 kts 303°
2026-05-05 20:03 46.56906 9.89442 35317 ft 435 kts 303°
2026-05-05 20:03 46.58901 9.86106 35542 ft 435 kts 303°
2026-05-05 20:03 46.60889 9.82800 35815 ft 433 kts 304°
2026-05-05 20:03 46.62880 9.79504 35997 ft 434 kts 304°
2026-05-05 20:04 46.64874 9.76202 36138 ft 436 kts 304°
2026-05-05 20:04 46.66881 9.72879 36335 ft 437 kts 304°
2026-05-05 20:04 46.68894 9.69546 36553 ft 437 kts 304°
2026-05-05 20:04 46.70900 9.66220 36766 ft 437 kts 305°
2026-05-05 20:05 46.72908 9.62886 36970 ft 438 kts 305°
2026-05-05 20:05 46.74916 9.59548 37162 ft 437 kts 305°
2026-05-05 20:05 46.76923 9.56206 37294 ft 439 kts 305°
2026-05-05 20:05 46.78939 9.52842 37467 ft 440 kts 305°
2026-05-05 20:06 46.80932 9.49515 37581 ft 441 kts 305°
2026-05-05 20:06 46.84983 9.42737 37844 ft 443 kts 306°
2026-05-05 20:07 46.89059 9.35903 37930 ft 446 kts 306°
2026-05-05 20:07 46.93119 9.29085 37921 ft 441 kts 306°
2026-05-05 20:08 46.97120 9.22344 37923 ft 439 kts 306°
2026-05-05 20:08 47.01128 9.15569 37916 ft 439 kts 306°
2026-05-05 20:09 47.05129 9.08790 37916 ft 440 kts 306°
2026-05-05 20:09 47.09142 9.01975 37905 ft 441 kts 306°
2026-05-05 20:10 47.13151 8.95153 37907 ft 441 kts 306°
2026-05-05 20:10 47.16520 8.87847 37907 ft 432 kts 289°
2026-05-05 20:11 47.18622 8.79614 37904 ft 429 kts 285°
2026-05-05 20:11 47.20645 8.71350 37911 ft 431 kts 286°
2026-05-05 20:12 47.22721 8.63054 37916 ft 432 kts 286°
2026-05-05 20:12 47.24809 8.54761 37918 ft 434 kts 286°
2026-05-05 20:13 47.26906 8.46400 37912 ft 435 kts 286°
2026-05-05 20:13 47.29003 8.38073 37920 ft 436 kts 286°
2026-05-05 20:14 47.31109 8.29680 37932 ft 437 kts 286°
2026-05-05 20:14 47.33214 8.21249 37915 ft 438 kts 286°
2026-05-05 20:15 47.35318 8.12794 37906 ft 439 kts 285°
2026-05-05 20:15 47.37415 8.04336 37908 ft 439 kts 285°
2026-05-05 20:16 47.39510 7.95859 37910 ft 439 kts 285°
2026-05-05 20:16 47.41597 7.87376 37895 ft 439 kts 285°
2026-05-05 20:17 47.43675 7.78901 37889 ft 438 kts 285°
2026-05-05 20:17 47.45730 7.70492 37885 ft 438 kts 285°
2026-05-05 20:18 47.47592 7.61962 37881 ft 434 kts 280°
2026-05-05 20:18 47.49214 7.53364 37875 ft 438 kts 289°
2026-05-05 20:19 47.52045 7.45330 37882 ft 441 kts 294°
2026-05-05 20:19 47.54990 7.37352 37882 ft 441 kts 294°
2026-05-05 20:20 47.57902 7.29334 37887 ft 442 kts 294°
2026-05-05 20:20 47.60769 7.21324 37885 ft 444 kts 294°
2026-05-05 20:21 47.63653 7.13210 37897 ft 445 kts 294°
2026-05-05 20:21 47.66536 7.05072 37885 ft 446 kts 294°
2026-05-05 20:22 47.69420 6.96908 37882 ft 447 kts 294°
2026-05-05 20:22 47.72304 6.88718 37886 ft 448 kts 294°
2026-05-05 20:23 47.75188 6.80504 37879 ft 449 kts 294°
2026-05-05 20:23 47.78072 6.72264 37893 ft 449 kts 294°
2026-05-05 20:24 47.81155 6.64235 37876 ft 453 kts 304°
2026-05-05 20:24 47.85101 6.56904 37868 ft 453 kts 306°
2026-05-05 20:25 47.89095 6.49664 37878 ft 452 kts 306°
2026-05-05 20:25 47.93050 6.42374 37864 ft 452 kts 305°
2026-05-05 20:26 47.96969 6.35047 37893 ft 451 kts 305°
2026-05-05 20:26 48.00869 6.27708 37859 ft 451 kts 305°
2026-05-05 20:27 48.04748 6.20384 37858 ft 450 kts 305°
2026-05-05 20:27 48.07978 6.14274 37863 ft 450 kts 305°
2026-05-05 20:28 48.12453 6.05786 37856 ft 450 kts 305°
2026-05-05 20:28 48.15674 5.99662 37858 ft 450 kts 305°
2026-05-05 20:29 48.19545 5.92284 37861 ft 450 kts 305°
2026-05-05 20:29 48.23354 5.85004 37853 ft 450 kts 305°
2026-05-05 20:30 48.27216 5.77602 37853 ft 450 kts 305°
2026-05-05 20:30 48.31081 5.70173 37846 ft 451 kts 305°
2026-05-05 20:31 48.34940 5.62737 37851 ft 451 kts 305°
2026-05-05 20:31 48.38799 5.55279 37851 ft 452 kts 305°
2026-05-05 20:32 48.42659 5.47799 37842 ft 453 kts 305°
2026-05-05 20:32 48.46271 5.40782 37838 ft 453 kts 305°
2026-05-05 20:33 48.50136 5.33252 37826 ft 454 kts 305°
2026-05-05 20:33 48.53971 5.25760 37835 ft 454 kts 305°
2026-05-05 20:34 48.57829 5.18200 37840 ft 454 kts 305°
2026-05-05 20:34 48.61681 5.10633 37827 ft 454 kts 305°
2026-05-05 20:35 48.65529 5.03051 37831 ft 454 kts 305°
2026-05-05 20:35 48.69371 4.95460 37829 ft 454 kts 305°
2026-05-05 20:36 48.73207 4.87860 37831 ft 454 kts 305°
2026-05-05 20:36 48.77013 4.80298 37822 ft 453 kts 305°
2026-05-05 20:37 48.80831 4.72689 37821 ft 453 kts 305°
2026-05-05 20:37 48.84645 4.65068 37811 ft 453 kts 305°
2026-05-05 20:38 48.88454 4.57435 37812 ft 453 kts 305°
2026-05-05 20:38 48.92250 4.49806 37816 ft 452 kts 305°
2026-05-05 20:39 48.96043 4.42162 37816 ft 452 kts 305°
2026-05-05 20:39 48.99823 4.34521 37824 ft 452 kts 305°
2026-05-05 20:40 49.03605 4.26855 37800 ft 453 kts 305°
2026-05-05 20:40 49.07362 4.19218 37802 ft 453 kts 305°
2026-05-05 20:41 49.11140 4.11517 37805 ft 453 kts 305°
2026-05-05 20:41 49.14912 4.03805 37802 ft 453 kts 305°
2026-05-05 20:42 49.18684 3.96073 37802 ft 454 kts 305°
2026-05-05 20:42 49.22453 3.88321 37809 ft 454 kts 305°
2026-05-05 20:43 49.26222 3.80548 37800 ft 455 kts 304°
2026-05-05 20:43 49.29987 3.72761 37813 ft 455 kts 304°
2026-05-05 20:44 49.33751 3.64953 37818 ft 455 kts 304°
2026-05-05 20:44 49.37511 3.57131 37812 ft 455 kts 304°
2026-05-05 20:45 49.43114 3.45431 37822 ft 456 kts 304°
2026-05-05 20:45 49.46869 3.37562 37824 ft 456 kts 304°
2026-05-05 20:46 49.50614 3.29691 37828 ft 456 kts 304°
2026-05-05 20:46 49.54351 3.21812 37833 ft 455 kts 304°
2026-05-05 20:47 49.58081 3.13925 37848 ft 455 kts 304°
2026-05-05 20:47 49.61806 3.06024 37842 ft 455 kts 304°
2026-05-05 20:48 49.65523 2.98119 37838 ft 455 kts 304°
2026-05-05 20:48 49.69229 2.90213 37845 ft 454 kts 304°
2026-05-05 20:49 49.72903 2.82353 37850 ft 453 kts 304°
2026-05-05 20:49 49.76590 2.74439 37855 ft 453 kts 304°
2026-05-05 20:50 49.80267 2.66524 37862 ft 453 kts 304°
2026-05-05 20:50 49.83939 2.58596 37856 ft 452 kts 304°
2026-05-05 20:51 49.87605 2.50657 37870 ft 452 kts 304°
2026-05-05 20:51 49.91237 2.42769 37872 ft 452 kts 304°
2026-05-05 20:52 49.94497 2.35668 37865 ft 452 kts 304°
2026-05-05 20:52 49.98143 2.27705 37872 ft 453 kts 303°
2026-05-05 20:53 50.01789 2.19717 37883 ft 453 kts 303°
2026-05-05 20:53 50.05429 2.11718 37886 ft 453 kts 303°
2026-05-05 20:54 50.09067 2.03702 37889 ft 452 kts 303°
2026-05-05 20:54 50.12689 1.95688 37892 ft 452 kts 303°
2026-05-05 20:55 50.16312 1.87661 37892 ft 451 kts 304°
2026-05-05 20:55 50.20503 1.80464 37919 ft 452 kts 315°
2026-05-05 20:56 50.25066 1.73685 37911 ft 452 kts 315°
2026-05-05 20:56 50.29592 1.66888 37897 ft 451 kts 314°
2026-05-05 20:57 50.34075 1.60047 37911 ft 450 kts 314°
2026-05-05 20:57 50.38540 1.53192 37908 ft 449 kts 314°
2026-05-05 20:58 50.42995 1.46335 37923 ft 448 kts 314°
2026-05-05 20:58 50.47444 1.39473 37911 ft 448 kts 314°
2026-05-05 20:59 50.51788 1.32545 37906 ft 447 kts 311°
2026-05-05 20:59 50.55967 1.25300 37923 ft 447 kts 310°
2026-05-05 21:00 50.60234 1.18172 37930 ft 448 kts 313°
2026-05-05 21:00 50.64662 1.11250 37941 ft 449 kts 313°
2026-05-05 21:01 50.69107 1.04285 37960 ft 452 kts 313°
2026-05-05 21:01 50.73571 0.97204 37957 ft 457 kts 312°
2026-05-05 21:02 50.78057 0.90043 37956 ft 459 kts 314°
2026-05-05 21:02 50.82962 0.83719 37891 ft 448 kts 323°
2026-05-05 21:03 50.85463 0.80933 37534 ft 442 kts 324°
2026-05-05 21:03 50.87976 0.78159 37022 ft 441 kts 323°
2026-05-05 21:03 50.90493 0.75358 36334 ft 444 kts 323°
2026-05-05 21:03 50.93027 0.72500 35602 ft 449 kts 323°
2026-05-05 21:04 50.95567 0.69602 34927 ft 453 kts 323°
2026-05-05 21:04 50.98131 0.66653 34285 ft 456 kts 323°
2026-05-05 21:04 51.00701 0.63680 33611 ft 458 kts 323°
2026-05-05 21:04 51.03272 0.60696 33077 ft 456 kts 322°
2026-05-05 21:05 51.05815 0.57740 32732 ft 449 kts 322°
2026-05-05 21:05 51.08325 0.54818 32386 ft 443 kts 322°
2026-05-05 21:05 51.10805 0.51928 31966 ft 439 kts 322°
2026-05-05 21:05 51.13257 0.49066 31502 ft 436 kts 322°
2026-05-05 21:06 51.15669 0.46247 31093 ft 433 kts 322°
2026-05-05 21:06 51.18089 0.43416 30724 ft 428 kts 322°
2026-05-05 21:06 51.20473 0.40625 30342 ft 424 kts 322°
2026-05-05 21:06 51.22849 0.37837 29862 ft 421 kts 322°
2026-05-05 21:07 51.25200 0.35076 29364 ft 417 kts 322°
2026-05-05 21:07 51.27497 0.32374 28889 ft 414 kts 322°
2026-05-05 21:07 51.29802 0.29660 28409 ft 410 kts 322°
2026-05-05 21:07 51.32091 0.26961 27934 ft 407 kts 322°
2026-05-05 21:08 51.34362 0.24281 27375 ft 403 kts 322°
2026-05-05 21:08 51.36606 0.21628 26947 ft 400 kts 322°
2026-05-05 21:08 51.38837 0.18988 26521 ft 396 kts 322°
2026-05-05 21:08 51.41040 0.16378 26092 ft 393 kts 322°
2026-05-05 21:09 51.43235 0.13773 25699 ft 390 kts 322°
2026-05-05 21:09 51.45408 0.11192 25284 ft 388 kts 322°
2026-05-05 21:09 51.47564 0.08629 24876 ft 385 kts 322°
2026-05-05 21:09 51.49702 0.06083 24491 ft 381 kts 322°
2026-05-05 21:10 51.51826 0.03551 24090 ft 378 kts 322°
2026-05-05 21:10 51.53932 0.01038 23728 ft 375 kts 322°
2026-05-05 21:10 51.56020 -0.01458 23315 ft 373 kts 322°
2026-05-05 21:10 51.58086 -0.03928 22960 ft 367 kts 322°
2026-05-05 21:11 51.60126 -0.06371 22570 ft 364 kts 322°
2026-05-05 21:11 51.62155 -0.08804 22095 ft 363 kts 322°
2026-05-05 21:11 51.64173 -0.11227 21607 ft 362 kts 322°
2026-05-05 21:11 51.66185 -0.13645 21172 ft 360 kts 322°
2026-05-05 21:12 51.67516 -0.15247 20893 ft 359 kts 322°
2026-05-05 21:12 51.69504 -0.17640 20487 ft 356 kts 322°
2026-05-05 21:12 51.71488 -0.20031 20067 ft 355 kts 322°
2026-05-05 21:12 51.73464 -0.22416 19660 ft 353 kts 322°
2026-05-05 21:13 51.75428 -0.24788 19237 ft 352 kts 322°
2026-05-05 21:13 51.77383 -0.27153 18837 ft 351 kts 322°
2026-05-05 21:13 51.79335 -0.29516 18472 ft 348 kts 322°
2026-05-05 21:13 51.81269 -0.31861 17968 ft 348 kts 322°
2026-05-05 21:14 51.83180 -0.34223 17582 ft 344 kts 317°
2026-05-05 21:14 51.84801 -0.37010 17217 ft 338 kts 307°
2026-05-05 21:14 51.86258 -0.40002 16756 ft 338 kts 306°
2026-05-05 21:14 51.87669 -0.42964 16373 ft 336 kts 307°
2026-05-05 21:15 51.89087 -0.45944 16066 ft 331 kts 306°
2026-05-05 21:15 51.90491 -0.48878 15744 ft 327 kts 306°
2026-05-05 21:15 51.91885 -0.51778 15315 ft 326 kts 307°
2026-05-05 21:15 51.93290 -0.54692 14878 ft 327 kts 307°
2026-05-05 21:16 51.94680 -0.57568 14571 ft 323 kts 307°
2026-05-05 21:16 51.96066 -0.60436 14147 ft 323 kts 307°
2026-05-05 21:16 51.97435 -0.63267 13803 ft 321 kts 308°
2026-05-05 21:16 51.98811 -0.66111 13407 ft 319 kts 308°
2026-05-05 21:17 52.00174 -0.68933 13055 ft 316 kts 308°
2026-05-05 21:17 52.01517 -0.71716 12769 ft 311 kts 308°
2026-05-05 21:17 52.02849 -0.74477 12383 ft 309 kts 308°
2026-05-05 21:17 52.04177 -0.77236 11958 ft 309 kts 308°
2026-05-05 21:18 52.05494 -0.79971 11676 ft 305 kts 308°
2026-05-05 21:18 52.06776 -0.82639 11603 ft 294 kts 308°
2026-05-05 21:18 52.08013 -0.85215 11545 ft 283 kts 308°
2026-05-05 21:18 52.09200 -0.87690 11468 ft 273 kts 308°
2026-05-05 21:19 52.10351 -0.90091 11289 ft 267 kts 308°
2026-05-05 21:19 52.11481 -0.92451 10966 ft 268 kts 308°
2026-05-05 21:19 52.12626 -0.94843 10651 ft 268 kts 309°
2026-05-05 21:19 52.13766 -0.97228 10411 ft 265 kts 309°
2026-05-05 21:20 52.14908 -0.99618 10069 ft 267 kts 308°
2026-05-05 21:20 52.16044 -1.02000 9816 ft 265 kts 308°
2026-05-05 21:20 52.17171 -1.04364 9537 ft 263 kts 308°
2026-05-05 21:20 52.18289 -1.06711 9250 ft 262 kts 308°
2026-05-05 21:21 52.19396 -1.09039 8937 ft 262 kts 308°
2026-05-05 21:21 52.20508 -1.11379 8675 ft 260 kts 308°
2026-05-05 21:21 52.21554 -1.13769 8394 ft 259 kts 297°
2026-05-05 21:21 52.22145 -1.16546 8153 ft 259 kts 287°
2026-05-05 21:22 52.22600 -1.19401 7888 ft 260 kts 285°
2026-05-05 21:22 52.23042 -1.22261 7628 ft 260 kts 285°
2026-05-05 21:22 52.23487 -1.25123 7377 ft 261 kts 285°
2026-05-05 21:22 52.23936 -1.27983 7156 ft 258 kts 285°
2026-05-05 21:23 52.24377 -1.30813 6926 ft 256 kts 285°
2026-05-05 21:23 52.24814 -1.33614 6694 ft 254 kts 285°
2026-05-05 21:23 52.25253 -1.36386 6444 ft 251 kts 285°
2026-05-05 21:23 52.25687 -1.39088 6133 ft 248 kts 285°
2026-05-05 21:24 52.26114 -1.41791 5786 ft 245 kts 285°
2026-05-05 21:24 52.26530 -1.44492 5428 ft 244 kts 285°
2026-05-05 21:24 52.26929 -1.47171 5167 ft 239 kts 286°
2026-05-05 21:24 52.27298 -1.49775 4926 ft 231 kts 285°
2026-05-05 21:25 52.27663 -1.52294 4602 ft 225 kts 289°
2026-05-05 21:25 52.28217 -1.54648 4312 ft 219 kts 300°
2026-05-05 21:25 52.29053 -1.56650 4063 ft 208 kts 324°
2026-05-05 21:25 52.30246 -1.57847 3844 ft 199 kts 332°
2026-05-05 21:26 52.31385 -1.59127 3570 ft 197 kts 328°
2026-05-05 21:26 52.32496 -1.60409 3298 ft 194 kts 329°
2026-05-05 21:26 52.33596 -1.61649 3030 ft 191 kts 330°
2026-05-05 21:26 52.34682 -1.62863 2776 ft 188 kts 330°
2026-05-05 21:27 52.35751 -1.64057 2523 ft 182 kts 331°
2026-05-05 21:27 52.36765 -1.65190 2288 ft 171 kts 332°
2026-05-05 21:27 52.37719 -1.66256 2041 ft 161 kts 332°
2026-05-05 21:27 52.38633 -1.67273 1850 ft 156 kts 332°
2026-05-05 21:28 52.39527 -1.68270 1632 ft 156 kts 331°
2026-05-05 21:28 52.40417 -1.69262 1410 ft 154 kts 330°
2026-05-05 21:28 52.41284 -1.70231 1176 ft 152 kts 331°
2026-05-05 21:28 52.42164 -1.71211 967 ft 155 kts 329°
2026-05-05 21:29 52.43063 -1.72217 770 ft 153 kts 329°
2026-05-05 21:29 52.43924 -1.73188 549 ft 151 kts 330°
2026-05-05 21:29 52.44797 -1.74150 336 ft 149 kts 330°
2026-05-05 21:29 52.45560 -1.74996 323 ft 112 kts 326°
2026-05-05 21:30 52.46074 -1.75566 309 ft 48 kts 326°
2026-05-05 21:30 52.46175 -1.75562 310 ft 12 kts 56°
2026-05-05 21:30 52.46220 -1.75422 304 ft 14 kts 98°
2026-05-05 21:30 52.46147 -1.75319 303 ft 14 kts 146°
2026-05-05 21:31 52.46070 -1.75233 306 ft 13 kts 146°
2026-05-05 21:31 52.45996 -1.75150 304 ft 13 kts 146°
2026-05-05 21:31 52.45923 -1.75070 307 ft 12 kts 146°
2026-05-05 21:31 52.45850 -1.74989 308 ft 13 kts 146°
2026-05-05 21:32 52.45766 -1.74896 309 ft 16 kts 146°
2026-05-05 21:32 52.45676 -1.74796 313 ft 15 kts 146°
2026-05-05 21:32 52.45589 -1.74699 319 ft 15 kts 146°
2026-05-05 21:32 52.45502 -1.74602 322 ft 16 kts 145°
2026-05-05 21:33 52.45433 -1.74434 322 ft 20 kts 116°
2026-05-05 21:33 52.45365 -1.74214 322 ft 23 kts 117°
2026-05-05 21:33 52.45289 -1.73988 322 ft 23 kts 137°
2026-05-05 21:33 52.45162 -1.73843 322 ft 21 kts 145°
2026-05-05 21:34 52.45046 -1.73749 321 ft 17 kts 165°
2026-05-05 21:34 52.44947 -1.73647 322 ft 17 kts 146°
2026-05-05 21:34 52.44903 -1.73506 322 ft 15 kts 69°
2026-05-05 21:34 52.44961 -1.73362 322 ft 15 kts 55°
2026-05-05 21:35 52.44987 -1.73285 322 ft 5 kts 92°
2026-05-05 21:35 52.44962 -1.73246 323 ft 3 kts 145°
2026-05-05 21:35 52.44955 -1.73238 323 ft 0 kts 145°
2026-05-05 21:35 52.44953 -1.73235 323 ft 0 kts 145°
2026-05-05 21:36 52.44952 -1.73235 323 ft 0 kts 145°
2026-05-05 21:38 52.44953 -1.73235 323 ft 0 kts 145°